Flag for Norway Weather past 2 weeks in Eidsvoll, Norway

Now
50 °F

Broken clouds.


Feels Like: 44 °F
Forecast: 38 / 53 °F
Wind: 16 mph from South

Location: Oslo Gardermoen Airport

Current Time: May 22, 2015 at 3:31:19 PM

Latest Report: May 22, 2015 at 2:50 PM


Visibility: N/A

Pressure: 29.80 "Hg

Humidity: 82%

Dew point: 45 °F

Location of EidsvollLocation

Historic Weather in Eidsvoll — Graph

°F

Eidsvoll temperature yesterday

Maximum temperature yesterday: 59 °F (at 1:20 PM)
Minimum temperature yesterday: 32 °F (at 4:50 AM)
Average temperature yesterday: 47 °F

Past Weeks' High & Low Weather Summary

 TemperatureHumidityPressure
High59 °F (May 13, 6:20 PM)100% (May 18, 1:50 AM)30.09 "Hg (May 18, 1:50 AM)
Low32 °F (May 21, 4:50 AM)22% (May 9, 3:50 PM)29.45 "Hg (May 19, 1:20 PM)
Average46 °F68%29.78 "Hg
* Reported May 7 2:20 PM — May 22 2:20 PM, Eidsvoll, Weather by CustomWeather, © 2015

Note: Actual official high and low records may vary slightly from our data, if they occured in-between our weather recording intervals... More about our weather records

Advertising

Eidsvoll weather history for previous 24 hours

 ConditionsComfort  
Time TempWeatherWind HumidityBarometerVisibility
2:20 PM
Fri, May 22
50 °FPartly sunny.18 mph82%29.83 "HgN/A
1:50 PM52 °FPartly sunny.16 mph77%29.83 "HgN/A
1:20 PM50 °FPartly sunny.17 mph76%29.83 "HgN/A
12:50 PM50 °FBroken clouds.16 mph76%29.86 "HgN/A
12:20 PM50 °FPartly sunny.20 mph76%29.86 "HgN/A
11:50 AM50 °FPartly sunny.18 mph82%29.86 "HgN/A
11:20 AM50 °FPartly sunny.16 mph76%29.89 "HgN/A
10:50 AM48 °FPartly sunny.14 mph87%29.89 "HgN/A
10:20 AM48 °FLight rain. Partly sunny.13 mph82%29.89 "HgN/A
9:50 AM46 °FPartly sunny.9 mph87%29.89 "HgN/A
9:20 AM46 °FPartly sunny.14 mph87%29.89 "HgN/A
8:50 AM46 °FBroken clouds.13 mph82%29.89 "HgN/A
8:20 AM45 °FLight rain. Partly sunny.13 mph87%29.89 "HgN/A
7:50 AM45 °FLight rain. Partly sunny.12 mph87%29.92 "HgN/A
7:20 AM46 °FLight rain. Partly sunny.13 mph82%29.92 "HgN/A
6:50 AM46 °FPartly sunny.12 mph82%29.92 "HgN/A
6:20 AM46 °FBroken clouds.9 mph87%29.92 "HgN/A
5:50 AM45 °FBroken clouds.13 mph93%29.92 "HgN/A
5:20 AM45 °FPassing clouds.9 mph93%29.92 "HgN/A
4:50 AM45 °FPassing clouds.8 mph87%29.95 "HgN/A
4:20 AM45 °FPassing clouds.7 mph93%29.95 "HgN/A
3:50 AM45 °FPassing clouds.8 mph93%29.95 "HgN/A
3:20 AM46 °FPassing clouds.10 mph87%29.95 "HgN/A
2:50 AM46 °FPassing clouds.10 mph87%29.95 "HgN/A
2:20 AM46 °FPartly cloudy.10 mph82%29.95 "HgN/A
1:50 AM46 °FPassing clouds.10 mph82%29.98 "HgN/A
1:20 AM46 °FPassing clouds.10 mph82%29.98 "HgN/A
12:50 AM46 °FPartly cloudy.12 mph82%29.98 "HgN/A
12:20 AM46 °FPassing clouds.8 mph82%29.98 "HgN/A
11:50 PM
Thu, May 21
46 °FPassing clouds.7 mph82%29.98 "HgN/A
11:20 PM46 °FPassing clouds.12 mph76%29.98 "HgN/A
10:50 PM46 °FPartly sunny.10 mph76%29.98 "HgN/A
10:20 PM46 °FBroken clouds.15 mph76%29.98 "HgN/A
9:50 PM48 °FPartly sunny.15 mph71%30.01 "HgN/A
9:20 PM48 °FPartly sunny.17 mph71%30.01 "HgN/A
8:50 PM50 °FSprinkles. Scattered clouds.13 mph67%30.01 "HgN/A
8:20 PM50 °FScattered showers. Clear.13 mph67%29.98 "HgN/A
7:50 PM52 °FScattered showers. Clear.5 mph54%29.98 "HgN/A
7:20 PM52 °FScattered showers. Clear.14 mph54%29.98 "HgN/A
6:50 PM52 °FPassing clouds.17 mph50%29.98 "HgN/A
6:20 PM54 °FSunny.15 mph51%29.98 "Hg10 mi
5:50 PM55 °FSunny.18 mph51%29.95 "Hg10 mi
5:20 PM55 °FSunny.18 mph47%29.95 "Hg10 mi
4:50 PM57 °FSunny.18 mph44%29.95 "Hg10 mi
4:20 PM57 °FSunny.16 mph48%29.95 "Hg10 mi
3:50 PM57 °FPassing clouds.15 mph48%29.95 "HgN/A
3:20 PM59 °FScattered showers. Clear.21 mph45%29.95 "HgN/A
Weather by CustomWeather, © 2015

See weather overviewHow to use our weather pages